Simultaneous Nadir Overpasses (SNOs) Predictions

Prediction of SNOs between LANDSAT-8 and METOP-A Satellite Orbit:

Table of predicted SNOs for the next 14.0 days since TLE Epoch: 7/12/2015
Index Date (LANDSAT-8) Time (LANDSAT-8) Lat,Lon (LANDSAT-8) SZA (LANDSAT-8 ) Date (METOP-A) Time (METOP-A) Lat,Lon (METOP-A) SZA (METOP-A ) Distance(km) Time Diff (sec)
1 07/13/2015 00:12:05 81.20,-141.73 61.45 07/13/2015 00:11:45 81.21,-141.60 61.46 2.39 20
2 07/13/2015 01:01:31 -81.22, 26.20 118.51 07/13/2015 01:02:25 -81.22, 26.08 118.50 2.08 54
3 07/15/2015 19:46:20 81.21, -75.11 61.89 07/15/2015 19:46:02 81.22, -74.95 61.90 2.81 18
4 07/15/2015 20:35:46 -81.23, 92.84 118.07 07/15/2015 20:36:42 -81.23, 92.77 118.05 1.27 56
5 07/18/2015 15:20:36 81.22, -8.61 62.36 07/18/2015 15:20:21 81.21, -8.73 62.34 2.05 15
6
